Погода в Джуно

США     58°21′38″N   134°30′47″W
темп.,
°C
ветер,
м/с
пор.,
м/с
влажн.,
%
обл.,
%
осадки,
мм/ч
давл.,
гПа
погр.,
м
15 мая, сб
сб1501:00+4вюв3698100 2.5 1015714
04:00+3в2398100 7.3 1014222
07:00+4в2299100 4.3 1013131
10:00+4в2399100 7.8 1014178
13:00+5юв249896 3.3 1016222
16:00+7ю238888 4.9 1016341
19:00+5зюз2296100 1.8 1016120
22:00+4з1195100 2.7 101538
16 мая, вс
вс1601:00+3з1194100 0.5 1015198
04:00+2ююв1194100 1.3 101542
07:00+3ююв1188100 0.1 1014208
10:00+5ю117699 0.6 1014894
13:00+7ю2270100 1.4 1014912
16:00+6юз1173100 2.6 1013822
19:00+5юз117877 1.1 1013620
22:00+2юз119327 1.2 101328
17 мая, пн
пн1701:00+1з119237 0.0 101314
04:00+1с019035 0.0 101311
07:00+3ссв017825 0.0 1012268
10:00+6зсз116690 0.0 10121126
13:00+7з116091 0.1 10121236
16:00+8зсз215428 0.1 10111300
19:00+7зсз225650 0.0 1011787
22:00+3зсз1178100 0.0 101217
18 мая, вт
вт1801:00+2зсз1180100 0.0 101218
04:00+2сз118199 0.0 101217
07:00+4з1175100 0.0 1013177
10:00+8з1161100 0.0 1014813
13:00+11з115137 0.0 10141368
16:00+11з214960 0.0 10151410
19:00+9зюз215731 0.0 1016529
22:00+4зсз11825 0.0 101815
19 мая, ср
ср1901:00+3зсз11856 0.0 101819
04:00+2з118969 0.0 101916
07:00+5з12786 0.0 1019236
10:00+9з21627 0.0 1019854
13:00+12з22539 0.0 10191265
16:00+12з22488 0.0 10191351
19:00+10з22588 0.0 1019471
22:00+5сз118226 0.0 102115